Oxford, NC

5:42 AM EST on November 17, 2019 (GMT -0500)
Henderson-Oxford

Weather History for KHNZ - September, 2019

Change the Weather History Date:

Friday, September 20, 2019

  Actual Average (KTDF) Record (KTDF)
Temperature  
Mean Temperature 60 °F -  
Max Temperature 75 °F 81 °F 93 °F (1965)
Min Temperature 45 °F 57 °F 42 °F (2019)
Degree Days  
Heating Degree Days 5    
Growing Degree Days 10 (Base 50)    
Moisture  
Dew Point 47 °F    
Average Humidity 66    
Maximum Humidity 99    
Minimum Humidity 30    
Precipitation  
Precipitation 0.00 in - - ()
Sea Level Pressure  
Sea Level Pressure 30.30 in    
Wind  
Wind Speed 0 mph (ENE)    
Max Wind Speed 4 mph    
Max Gust Speed -    
Visibility 9 miles    
Events Fog    
Averages and records for this station are not official NWS values.
T = Trace of Precipitation, MM = Missing Value Source: NWS Daily Summary

Daily Weather History Graph

Daily Weather History Graph

Search for Another Location

Airport or City:

Astronomy

Sep. 20, 2019 Rise Set
Actual Time 7:00 AM EDT 7:14 PM EDT
Civil Twilight 6:34 AM EDT 7:40 PM EDT
Nautical Twilight 6:04 AM EDT 8:10 PM EDT
Astronomical Twilight 5:33 AM EDT 8:40 PM EDT
Moon 11:12 PM EDT (9/20) 12:53 PM EDT (9/20)
Length of Visible Light 13h 05m
Length of Day
12h 14m
Waning Gibbous, 65% of the Moon is Illuminated
Sep 20
Waning Gibbous
Sep 21
Last Quarter
Sep 28
New
Oct 5
First Quarter
Oct 13
Full

Hourly Weather History & Observations

Time (EDT) Temp. Dew Point Humidity Pressure Visibility Wind Dir Wind Speed Gust Speed Precip Events Conditions
12:15 AM 54.1 °F 47.8 °F 79% 30.29 in 10.0 mi Calm Calm - N/A   Clear
12:35 AM 56.1 °F 49.1 °F 77% 30.29 in 10.0 mi Calm Calm - N/A   Clear
12:55 AM 55.6 °F 48.9 °F 78% 30.30 in 10.0 mi Calm Calm - N/A   Clear
1:15 AM 55.4 °F 49.1 °F 79% 30.30 in 10.0 mi Calm Calm - N/A   Clear
1:35 AM 54.5 °F 48.9 °F 81% 30.30 in 10.0 mi Calm Calm - N/A   Clear
1:55 AM 52.0 °F 48.7 °F 89% 30.30 in 10.0 mi Calm Calm - N/A   Clear
2:15 AM 51.1 °F 48.6 °F 91% 30.30 in 10.0 mi Calm Calm - N/A   Clear
2:35 AM 50.0 °F 48.4 °F 94% 30.30 in 10.0 mi Calm Calm - N/A   Clear
2:55 AM 50.0 °F 48.7 °F 95% 30.30 in 10.0 mi Calm Calm - N/A   Clear
3:15 AM 49.5 °F 48.4 °F 96% 30.30 in 10.0 mi Calm Calm - N/A   Clear
3:35 AM 48.7 °F 47.7 °F 96% 30.29 in 10.0 mi Calm Calm - N/A   Clear
4:15 AM 48.6 °F 48.0 °F 98% 30.30 in 10.0 mi Calm Calm - N/A   Clear
4:55 AM 47.5 °F 46.9 °F 98% 30.30 in 5.0 mi Calm Calm - N/A   Clear
5:15 AM 47.7 °F 47.3 °F 99% 30.31 in 10.0 mi Calm Calm - N/A   Clear
5:35 AM 47.5 °F 46.9 °F 98% 30.32 in 1.8 mi Calm Calm - N/A   Mist
5:55 AM 46.6 °F 46.0 °F 98% 30.32 in 0.8 mi Calm Calm - N/A   Mist
6:15 AM 47.1 °F 46.8 °F 99% 30.32 in 1.8 mi Calm Calm - N/A   Mist
6:35 AM 46.8 °F 46.4 °F 99% 30.32 in 10.0 mi Calm Calm - N/A   Clear
6:55 AM 45.5 °F 45.1 °F 99% 30.33 in 0.2 mi Calm Calm - N/A Fog Fog
7:15 AM 45.7 °F 45.3 °F 99% 30.33 in 0.2 mi Calm Calm - N/A Fog Fog
7:35 AM 46.6 °F 46.4 °F 99% 30.34 in 3.0 mi Calm Calm - N/A   Clear
7:55 AM 47.8 °F 47.5 °F 99% 30.35 in 10.0 mi Calm Calm - N/A   Clear
8:15 AM 50.7 °F 50.2 °F 98% 30.35 in 10.0 mi Calm Calm - N/A   Clear
8:35 AM 53.4 °F 52.0 °F 95% 30.35 in 10.0 mi Calm Calm - N/A   Clear
8:55 AM 55.9 °F 52.7 °F 89% 30.35 in 10.0 mi Calm Calm - N/A   Clear
9:15 AM 58.6 °F 52.3 °F 80% 30.36 in 10.0 mi Calm Calm - N/A   Clear
9:35 AM 60.1 °F 52.0 °F 75% 30.35 in 10.0 mi Calm Calm - N/A   Clear
9:55 AM 61.7 °F 51.6 °F 69% 30.35 in 10.0 mi Calm Calm - N/A   Clear
10:15 AM 64.6 °F 50.9 °F 61% 30.35 in 10.0 mi Calm Calm - N/A   Clear
10:35 AM 64.6 °F 49.1 °F 57% 30.35 in 10.0 mi Calm Calm - N/A   Clear
10:55 AM 67.1 °F 47.8 °F 50% 30.35 in 10.0 mi Calm Calm - N/A   Clear
11:15 AM 66.9 °F 46.8 °F 48% 30.34 in 10.0 mi Calm Calm - N/A   Clear
11:35 AM 67.3 °F 44.4 °F 44% 30.34 in 10.0 mi ENE 3.5 mph - N/A   Clear
11:55 AM 69.1 °F 45.3 °F 42% 30.34 in 10.0 mi Calm Calm - N/A   Clear
12:15 PM 69.1 °F 45.3 °F 42% 30.33 in 10.0 mi Calm Calm - N/A   Clear
12:35 PM 70.9 °F 45.0 °F 39% 30.32 in 10.0 mi Calm Calm - N/A   Clear
12:55 PM 71.1 °F 44.6 °F 39% 30.32 in 10.0 mi Calm Calm - N/A   Clear
1:15 PM 70.3 °F 44.8 °F 40% 30.31 in 10.0 mi Calm Calm - N/A   Clear
1:35 PM 72.5 °F 44.8 °F 37% 30.30 in 10.0 mi Calm Calm - N/A   Clear
1:55 PM 73.0 °F 45.3 °F 37% 30.29 in 10.0 mi Calm Calm - N/A   Clear
2:15 PM 73.8 °F 45.5 °F 36% 30.28 in 10.0 mi Calm Calm - N/A   Clear
2:35 PM 74.3 °F 46.2 °F 37% 30.27 in 10.0 mi Calm Calm - N/A   Clear
2:55 PM 74.5 °F 45.3 °F 35% 30.27 in 10.0 mi Calm Calm - N/A   Clear
3:15 PM 74.1 °F 43.2 °F 33% 30.26 in 10.0 mi Calm Calm - N/A   Clear
3:35 PM 75.0 °F 43.9 °F 33% 30.26 in 10.0 mi Calm Calm - N/A   Clear
3:55 PM 74.5 °F 41.9 °F 31% 30.25 in 10.0 mi Calm Calm - N/A   Clear
4:15 PM 75.7 °F 43.3 °F 31% 30.24 in 10.0 mi Calm Calm - N/A   Clear
4:35 PM 75.6 °F 44.4 °F 33% 30.25 in 10.0 mi Calm Calm - N/A   Clear
4:55 PM 75.4 °F 43.5 °F 32% 30.24 in 10.0 mi Calm Calm - N/A   Clear
5:15 PM 75.2 °F 42.1 °F 30% 30.24 in 10.0 mi Calm Calm - N/A   Clear
5:35 PM 74.3 °F 42.4 °F 32% 30.25 in 10.0 mi Calm Calm - N/A   Clear
5:55 PM 74.5 °F 43.5 °F 33% 30.25 in 10.0 mi Calm Calm - N/A   Clear
6:15 PM 74.1 °F 46.8 °F 38% 30.25 in 10.0 mi Calm Calm - N/A   Clear
6:35 PM 72.5 °F 48.9 °F 43% 30.25 in 10.0 mi Calm Calm - N/A   Clear
6:55 PM 70.5 °F 49.5 °F 47% 30.26 in 10.0 mi Calm Calm - N/A   Clear
7:15 PM 68.4 °F 49.3 °F 50% 30.26 in 10.0 mi Calm Calm - N/A   Clear
7:35 PM 67.1 °F 48.7 °F 52% 30.26 in 10.0 mi Calm Calm - N/A   Clear
8:15 PM 64.6 °F 48.6 °F 56% 30.26 in 10.0 mi Calm Calm - N/A   Clear
8:35 PM 63.9 °F 48.2 °F 57% 30.27 in 10.0 mi Calm Calm - N/A   Clear
8:55 PM 61.7 °F 48.6 °F 62% 30.27 in 10.0 mi Calm Calm - N/A   Clear
9:15 PM 61.5 °F 49.3 °F 64% 30.28 in 10.0 mi Calm Calm - N/A   Clear
9:35 PM 61.3 °F 49.3 °F 65% 30.28 in 10.0 mi Calm Calm - N/A   Clear
9:55 PM 60.8 °F 50.0 °F 68% 30.28 in 10.0 mi Calm Calm - N/A   Clear
10:15 PM 58.6 °F 50.0 °F 73% 30.28 in 10.0 mi Calm Calm - N/A   Clear
10:35 PM 58.1 °F 50.2 °F 75% 30.28 in 10.0 mi Calm Calm - N/A   Clear
10:55 PM 58.1 °F 50.4 °F 75% 30.28 in 10.0 mi Calm Calm - N/A   Clear
11:15 PM 57.2 °F 50.5 °F 78% 30.29 in 10.0 mi Calm Calm - N/A   Clear
11:35 PM 57.2 °F 50.9 °F 79% 30.28 in 10.0 mi Calm Calm - N/A   Clear
11:55 PM 56.8 °F 50.9 °F 80% 30.29 in 10.0 mi Calm Calm - N/A   Clear